CW2157 Weather Reports


time (UTC)temp
F
wind
direction
speed
knots
gust
knots
rain 1hr
in
rain 24hr
in
rain mn
in
humidity
%
barometer
mb
20260509070205 60 215 7.8 13.9 0.00 0.00 0.00 76 1011.0
20260509065705 60 204 8.7 15.6 0.00 0.00 0.00 76 1011.0
20260509065205 60 191 9.6 13.9 0.00 0.00 0.00 76 1011.1
20260509064205 60 199 10.4 15.6 0.00 0.00 0.00 76 1011.1
20260509063705 60 180 13.0 18.2 0.00 0.00 0.00 75 1011.1
20260509063205 60 183 10.4 15.6 0.00 0.00 0.00 75 1011.2
20260509062705 60 182 10.4 17.4 0.00 0.00 0.00 75 1011.2
20260509062205 60 270 10.4 17.4 0.00 0.00 0.00 75 1011.3
20260509061705 60 238 12.2 17.4 0.00 0.00 0.00 76 1011.3
20260509061204 60 205 9.6 14.8 0.00 0.00 0.00 76 1011.2
20260509060704 60 204 9.6 15.6 0.00 0.00 0.00 76 1011.2
20260509060204 60 204 8.7 13.9 0.00 0.00 0.00 76 1011.3
20260509055704 60 198 10.4 17.4 0.00 0.00 0.00 75 1011.4
20260509055204 60 198 9.6 14.8 0.00 0.00 0.00 75 1011.3
20260509054704 60 223 10.4 15.6 0.00 0.00 0.00 75 1011.3
20260509053705 60 294 10.4 14.8 0.00 0.00 0.00 76 1011.4
20260509053204 60 172 9.6 17.4 0.00 0.00 0.00 76 1011.5
20260509052705 60 188 10.4 15.6 0.00 0.00 0.00 76 1011.4
20260509052205 60 215 8.7 13.9 0.00 0.00 0.00 77 1011.4
20260509051705 60 192 9.6 19.1 0.00 0.00 0.00 76 1011.4
20260509050705 60 196 7.8 15.6 0.00 0.00 0.00 76 1011.4
20260509050205 60 194 9.6 18.2 0.00 0.00 0.00 76 1011.5
20260509045705 60 227 10.4 15.6 0.00 0.00 0.00 75 1011.4
20260509045205 60 220 8.7 15.6 0.00 0.00 0.00 75 1011.5
20260509044705 60 185 8.7 15.6 0.00 0.00 0.00 75 1011.4
20260509044205 60 191 9.6 19.1 0.00 0.00 0.00 74 1011.5
20260509042704 60 246 9.6 17.4 0.00 0.00 0.00 73 1011.5
20260509042205 60 212 11.3 17.4 0.00 0.00 0.00 73 1011.5
20260509041704 60 199 9.6 17.4 0.00 0.00 0.00 74 1011.5
20260509041204 60 188 9.6 12.2 0.00 0.00 0.00 74 1011.6
20260509040704 60 181 10.4 14.8 0.00 0.00 0.00 75 1011.7
20260509035705 60 190 8.7 17.4 0.00 0.00 0.00 75 1011.8
20260509035205 60 177 8.7 14.8 0.00 0.00 0.00 74 1011.9
20260509034204 60 202 7.8 14.8 0.00 0.00 0.00 74 1011.8
20260509033705 60 191 8.7 13.0 0.00 0.00 0.00 74 1011.7
20260509033205 60 210 8.7 14.8 0.00 0.00 0.00 74 1011.7
20260509032205 60 178 9.6 14.8 0.00 0.00 0.00 73 1011.8
20260509031705 60 194 10.4 14.8 0.00 0.00 0.00 73 1012.0
20260509031204 60 184 7.8 13.9 0.00 0.00 0.00 72 1012.0
20260509030705 60 190 7.8 13.9 0.00 0.00 0.00 71 1012.0
20260509024705 61 192 9.6 14.8 0.00 0.00 0.00 69 1011.8
20260509023705 61 181 10.4 17.4 0.00 0.00 0.00 69 1011.7
20260509023205 61 190 10.4 15.6 0.00 0.00 0.00 69 1011.8
20260509022704 61 213 10.4 15.6 0.00 0.00 0.00 68 1011.7
20260509022205 61 183 7.8 17.4 0.00 0.00 0.00 68 1011.7
20260509021705 61 181 10.4 15.6 0.00 0.00 0.00 68 1011.7
20260509021204 61 196 8.7 14.8 0.00 0.00 0.00 68 1011.8
20260509020205 61 197 8.7 12.2 0.00 0.00 0.00 67 1011.8
20260509015205 61 206 8.7 13.9 0.00 0.00 0.00 66 1011.8
20260509014205 61 188 9.6 15.6 0.00 0.00 0.00 66 1011.7
20260509013705 61 195 8.7 14.8 0.00 0.00 0.00 66 1011.7
20260509013205 61 193 8.7 12.2 0.00 0.00 0.00 66 1011.7
20260509012205 61 191 9.6 14.8 0.00 0.00 0.00 65 1011.7
20260509011205 62 223 8.7 14.8 0.00 0.00 0.00 65 1011.5
20260509010704 62 196 8.7 14.8 0.00 0.00 0.00 64 1011.5
20260509010204 62 191 9.6 15.6 0.00 0.00 0.00 64 1011.4
20260509005704 62 195 8.7 14.8 0.00 0.00 0.00 63 1011.4
20260509005204 62 193 8.7 17.4 0.00 0.00 0.00 64 1011.3
20260509004704 62 174 8.7 14.8 0.00 0.00 0.00 63 1011.2
20260509004204 62 184 8.7 17.4 0.00 0.00 0.00 62 1011.2
20260509003704 62 186 7.8 15.6 0.00 0.00 0.00 62 1011.2
20260509003204 62 204 11.3 18.2 0.00 0.00 0.00 62 1011.0
20260509002204 62 195 7.8 13.0 0.00 0.00 0.00 61 1011.0
20260509001704 62 184 7.8 13.0 0.00 0.00 0.00 61 1010.9
20260509000704 63 211 6.1 13.0 0.00 0.00 0.00 59 1010.9
20260509000204 63 183 7.8 13.9 0.00 0.00 0.00 59 1010.9
20260508235704 63 192 7.8 14.8 0.00 0.00 0.00 59 1010.8
20260508234704 63 186 7.8 13.0 0.00 0.00 0.00 57 1010.8
20260508234204 63 195 6.1 12.2 0.00 0.00 0.00 58 1010.8
20260508233704 63 189 7.8 15.6 0.00 0.00 0.00 56 1010.7
20260508232705 63 199 10.4 17.4 0.00 0.00 0.00 54 1010.7
20260508232204 63 193 8.7 14.8 0.00 0.00 0.00 54 1010.7
20260508231204 63 198 9.6 14.8 0.00 0.00 0.00 53 1010.7
20260508230704 64 178 11.3 17.4 0.00 0.00 0.00 52 1010.6
20260508230205 64 196 8.7 14.8 0.00 0.00 0.00 54 1010.7
20260508225704 64 200 8.7 13.9 0.00 0.00 0.00 53 1010.6
20260508225204 64 196 11.3 15.6 0.00 0.00 0.00 51 1010.7
20260508224704 64 194 11.3 17.4 0.00 0.00 0.00 52 1010.6
20260508224205 64 188 10.4 17.4 0.00 0.00 0.00 51 1010.6
20260508223704 64 194 10.4 20.0 0.00 0.00 0.00 53 1010.5
20260508223204 64 204 11.3 20.0 0.00 0.00 0.00 52 1010.5
20260508222704 65 183 11.3 20.9 0.00 0.00 0.00 51 1010.5
20260508222204 65 194 12.2 18.2 0.00 0.00 0.00 51 1010.6
20260508221704 65 187 12.2 19.1 0.00 0.00 0.00 51 1010.6
20260508221205 65 203 10.4 17.4 0.00 0.00 0.00 51 1010.5
20260508220704 66 187 11.3 17.4 0.00 0.00 0.00 53 1010.4
20260508220204 66 199 12.2 18.2 0.00 0.00 0.00 51 1010.6
20260508215704 66 206 11.3 15.6 0.00 0.00 0.00 50 1010.4
20260508215204 67 218 11.3 17.4 0.00 0.00 0.00 51 1010.5
20260508214704 67 202 10.4 15.6 0.00 0.00 0.00 49 1010.5
20260508214204 68 205 11.3 17.4 0.00 0.00 0.00 51 1010.4
20260508213704 68 187 10.4 17.4 0.00 0.00 0.00 51 1010.4
20260508213204 68 190 11.3 18.2 0.00 0.00 0.00 49 1010.4
20260508212704 68 189 9.6 14.8 0.00 0.00 0.00 49 1010.4
20260508212204 68 186 11.3 19.1 0.00 0.00 0.00 50 1010.4
20260508211205 68 194 10.4 17.4 0.00 0.00 0.00 49 1010.5
20260508210705 68 192 11.3 18.2 0.00 0.00 0.00 45 1010.5
20260508210205 68 194 12.2 17.4 0.00 0.00 0.00 46 1010.5
20260508205704 68 199 11.3 17.4 0.00 0.00 0.00 49 1010.6
20260508205204 68 202 11.3 14.8 0.00 0.00 0.00 47 1010.7
20260508204704 68 203 9.6 14.8 0.00 0.00 0.00 48 1010.7
20260508203704 68 209 13.9 22.6 0.00 0.00 0.00 45 1010.7
20260508203204 68 194 12.2 18.2 0.00 0.00 0.00 48 1010.7
20260508202704 68 198 11.3 18.2 0.00 0.00 0.00 46 1010.8
20260508202204 68 195 13.9 20.0 0.00 0.00 0.00 48 1010.9
20260508201704 68 187 13.0 19.1 0.00 0.00 0.00 47 1011.0
20260508201205 69 203 12.2 20.9 0.00 0.00 0.00 48 1011.0
20260508200704 69 187 10.4 17.4 0.00 0.00 0.00 50 1011.2
20260508200204 69 194 11.3 20.0 0.00 0.00 0.00 49 1011.3
20260508195704 69 191 11.3 17.4 0.00 0.00 0.00 49 1011.3
20260508195204 69 198 10.4 18.2 0.00 0.00 0.00 49 1011.4
20260508194705 68 206 10.4 17.4 0.00 0.00 0.00 48 1011.4
20260508194204 68 203 10.4 13.0 0.00 0.00 0.00 49 1011.5
20260508193704 68 195 11.3 19.1 0.00 0.00 0.00 46 1011.4
20260508193204 68 190 12.2 17.4 0.00 0.00 0.00 48 1011.5
20260508192204 68 203 12.2 17.4 0.00 0.00 0.00 51 1011.6
20260508191704 68 198 8.7 15.6 0.00 0.00 0.00 48 1011.7
20260508191205 68 199 12.2 19.1 0.00 0.00 0.00 43 1011.8
20260508185205 67 200 11.3 20.9 0.00 0.00 0.00 47 1012.1
20260508184704 67 206 11.3 18.2 0.00 0.00 0.00 47 1012.1
20260508184204 67 188 11.3 19.1 0.00 0.00 0.00 47 1012.1
20260508183704 67 203 11.3 17.4 0.00 0.00 0.00 46 1012.2
20260508183204 67 205 12.2 17.4 0.00 0.00 0.00 48 1012.2
20260508182204 67 198 12.2 17.4 0.00 0.00 0.00 47 1012.2
20260508181705 67 205 13.0 25.2 0.00 0.00 0.00 50 1012.3
20260508181204 67 198 13.0 19.1 0.00 0.00 0.00 46 1012.3
20260508180704 67 203 12.2 18.2 0.00 0.00 0.00 46 1012.4
20260508180204 67 202 13.9 20.0 0.00 0.00 0.00 46 1012.3
20260508174204 67 192 11.3 17.4 0.00 0.00 0.00 44 1012.4
20260508173704 67 208 11.3 15.6 0.00 0.00 0.00 46 1012.6
20260508173204 66 186 11.3 15.6 0.00 0.00 0.00 45 1012.6
20260508172704 66 185 10.4 15.6 0.00 0.00 0.00 42 1012.7
20260508171704 66 196 8.7 13.9 0.00 0.00 0.00 44 1012.9
20260508171205 66 192 11.3 17.4 0.00 0.00 0.00 44 1013.0
20260508170704 65 200 12.2 17.4 0.00 0.00 0.00 45 1013.0
20260508170204 65 200 7.0 12.2 0.00 0.00 0.00 42 1013.0
20260508165704 65 164 8.7 15.6 0.00 0.00 0.00 45 1013.1
20260508165204 65 209 9.6 15.6 0.00 0.00 0.00 41 1013.1
20260508164704 65 179 11.3 17.4 0.00 0.00 0.00 38 1013.2
20260508163704 65 193 7.0 11.3 0.00 0.00 0.00 43 1013.2
20260508163204 65 182 10.4 15.6 0.00 0.00 0.00 42 1013.3
20260508162704 65 198 7.0 13.9 0.00 0.00 0.00 43 1013.4
20260508161704 65 156 7.0 11.3 0.00 0.00 0.00 44 1013.5
20260508161204 65 189 7.8 12.2 0.00 0.00 0.00 44 1013.5
20260508160204 65 178 6.1 11.3 0.00 0.00 0.00 44 1013.7
20260508155705 65 180 8.7 14.8 0.00 0.00 0.00 42 1013.7
20260508155204 66 203 7.8 12.2 0.00 0.00 0.00 44 1013.7
20260508154704 66 197 9.6 12.2 0.00 0.00 0.00 44 1013.6
20260508154204 66 200 7.0 12.2 0.00 0.00 0.00 43 1013.7
20260508153204 66 212 7.8 11.3 0.00 0.00 0.00 43 1014.0
20260508152705 66 210 6.1 10.4 0.00 0.00 0.00 39 1014.0
20260508152204 66 227 5.2 8.7 0.00 0.00 0.00 39 1014.0
20260508150704 65 218 5.2 7.8 0.00 0.00 0.00 36 1014.2
20260508150205 65 241 3.5 10.4 0.00 0.00 0.00 35 1014.1
20260508145704 65 229 4.3 7.8 0.00 0.00 0.00 34 1014.1
20260508145204 65 220 5.2 7.8 0.00 0.00 0.00 36 1014.0
20260508144204 65 232 4.3 8.7 0.00 0.00 0.00 45 1014.2
20260508143204 65 211 2.6 5.2 0.00 0.00 0.00 42 1014.2
20260508142703 65 207 4.3 6.1 0.00 0.00 0.00 43 1014.2
20260508142204 64 220 1.7 2.6 0.00 0.00 0.00 40 1014.2
20260508141704 64 204 2.6 2.6 0.00 0.00 0.00 39 1014.3
20260508141204 64 200 2.6 2.6 0.00 0.00 0.00 37 1014.2
20260508140704 63 191 1.7 2.6 0.00 0.00 0.00 37 1014.2
20260508140204 63 202 1.7 2.6 0.00 0.00 0.00 40 1014.3
20260508135704 63 327 0.0 1.7 0.00 0.00 0.00 39 1014.4
20260508135204 62 333 1.7 2.6 0.00 0.00 0.00 40 1014.4
20260508134704 62 212 2.6 6.1 0.00 0.00 0.00 43 1014.4
20260508134204 62 260 0.9 2.6 0.00 0.00 0.00 41 1014.4
20260508133704 62 82 0.0 2.6 0.00 0.00 0.00 40 1014.4
20260508133204 62 350 1.7 4.3 0.00 0.00 0.00 40 1014.4
20260508132704 62 305 2.6 5.2 0.00 0.00 0.00 42 1014.5
20260508132204 62 83 0.9 2.6 0.00 0.00 0.00 43 1014.5
20260508131204 61 358 2.6 6.1 0.00 0.00 0.00 46 1014.5
20260508130204 61 356 2.6 4.3 0.00 0.00 0.00 48 1014.6
20260508125704 61 51 2.6 4.3 0.00 0.00 0.00 50 1014.4
20260508125204 60 62 0.0 0.9 0.00 0.00 0.00 50 1014.4
20260508124704 60 335 0.9 4.3 0.00 0.00 0.00 50 1014.5
20260508124204 60 271 0.9 1.7 0.00 0.00 0.00 51 1014.4
20260508123203 59 7 2.6 4.3 0.00 0.00 0.00 51 1014.3
20260508122704 59 350 1.7 4.3 0.00 0.00 0.00 53 1014.3
20260508122205 59 354 1.7 4.3 0.00 0.00 0.00 52 1014.3
20260508121704 59 359 2.6 6.1 0.00 0.00 0.00 55 1014.3
20260508121204 59 346 1.7 2.6 0.00 0.00 0.00 55 1014.1
20260508120704 58 295 0.9 2.6 0.00 0.00 0.00 56 1014.2
20260508120204 58 326 1.7 2.6 0.00 0.00 0.00 56 1014.1
20260508115704 57 356 1.7 5.2 0.00 0.00 0.00 54 1014.0
20260508115204 57 327 0.9 2.6 0.00 0.00 0.00 56 1013.9
20260508114204 56 335 0.0 2.6 0.00 0.00 0.00 54 1013.9
20260508113204 55 25 0.0 2.6 0.00 0.00 0.00 59 1013.7
20260508112704 54 8 0.9 2.6 0.00 0.00 0.00 59 1013.7
20260508112203 53 338 0.0 1.7 0.00 0.00 0.00 62 1013.6
20260508111203 52 348 0.9 2.6 0.00 0.00 0.00 63 1013.4
20260508110704 52 357 1.7 2.6 0.00 0.00 0.00 64 1013.5
20260508110204 52 347 1.7 2.6 0.00 0.00 0.00 63 1013.4
20260508105704 52 9 0.9 2.6 0.00 0.00 0.00 64 1013.3
20260508105204 52 10 0.0 2.6 0.00 0.00 0.00 64 1013.2
20260508104704 52 352 0.9 2.6 0.00 0.00 0.00 63 1013.1
20260508104204 52 352 0.9 2.6 0.00 0.00 0.00 63 1013.1
20260508102704 52 1 0.0 2.6 0.00 0.01 0.00 62 1012.8
20260508102204 52 348 1.7 4.3 0.00 0.01 0.00 62 1012.8
20260508101704 52 350 0.9 5.2 0.00 0.01 0.00 62 1012.7
20260508101204 52 358 0.9 2.6 0.00 0.01 0.00 62 1012.6
20260508100704 52 347 0.9 2.6 0.00 0.01 0.00 62 1012.6
20260508100204 52 344 0.0 2.6 0.00 0.01 0.00 63 1012.7
20260508095205 53 351 0.9 4.3 0.00 0.01 0.00 62 1012.6
20260508094706 53 339 1.7 4.3 0.00 0.01 0.00 61 1012.5
20260508094205 53 4 0.9 4.3 0.00 0.01 0.00 61 1012.6
20260508093706 53 356 1.7 4.3 0.00 0.01 0.00 61 1012.6
20260508093205 53 344 0.9 5.2 0.00 0.01 0.00 62 1012.5
20260508092705 53 1 0.9 2.6 0.00 0.01 0.00 62 1012.5
20260508092205 52 353 3.5 7.8 0.00 0.01 0.00 64 1012.5
20260508091706 53 355 2.6 7.8 0.00 0.01 0.00 66 1012.4
20260508091205 53 0 2.6 6.1 0.00 0.01 0.00 67 1012.3
20260508085706 53 345 2.6 5.2 0.00 0.01 0.00 67 1012.0
20260508085205 53 337 1.7 4.3 0.00 0.01 0.00 68 1012.1
20260508084705 53 351 2.6 7.8 0.00 0.01 0.00 67 1011.9
20260508084205 53 334 4.3 10.4 0.00 0.01 0.00 68 1011.8
20260508083706 53 354 1.7 6.1 0.00 0.01 0.00 69 1011.8
20260508083205 53 339 1.7 7.8 0.00 0.01 0.00 70 1011.7
20260508082706 53 359 2.6 7.0 0.00 0.01 0.00 70 1011.6
20260508082206 53 343 0.9 7.0 0.00 0.01 0.00 71 1011.6
20260508081705 53 331 1.7 6.1 0.00 0.01 0.00 71 1011.6
20260508081205 52 351 2.6 6.1 0.00 0.01 0.00 74 1011.6
20260508080206 52 331 1.7 5.2 0.00 0.01 0.00 75 1011.4
20260508075705 52 324 2.6 7.0 0.00 0.01 0.00 77 1011.3
20260508075205 52 319 2.6 7.8 0.00 0.01 0.00 78 1011.2
20260508074706 52 347 1.7 7.8 0.00 0.01 0.00 80 1011.2
20260508073705 52 334 2.6 10.4 0.00 0.01 0.00 82 1010.9
20260508073206 52 340 2.6 7.8 0.00 0.01 0.00 84 1010.8
20260508072705 52 343 0.0 2.6 0.00 0.01 0.00 85 1010.8
20260508072206 52 198 0.0 2.6 0.00 0.01 0.00 85 1010.7
20260508071705 52 259 0.9 5.2 0.00 0.01 0.00 85 1010.6
20260508071205 52 237 1.7 5.2 0.00 0.01 0.00 85 1010.6